Location: ????
(30.2663°N, 31.2484°E)
Time: 00:17:10
(UTC+00:00)

deb Kosmos-1275 - Visible Passes

Search period start: 19 April 2024 00:00
Search period end: 29 April 2024 00:00
Orbit: 888 x 996 km, 83.0° (Epoch: 17 April)

Date Brightness Start Highest point End Pass type
(mag) Time Alt. Az. Time Alt. Az. Time Alt. Az.
19 Apr ? 21:26:05 16° N 21:26:05 16° N 21:27:10 10° N visible
20 Apr ? 21:41:08 15° NNW 21:41:08 15° NNW 21:42:08 10° NNW visible
21 Apr ? 20:12:13 14° NNE 20:12:13 14° NNE 20:13:04 10° NNE visible
21 Apr ? 21:56:09 12° NNW 21:56:09 12° NNW 21:56:44 10° NNW visible
22 Apr ? 20:27:14 18° NNE 20:27:14 18° NNE 20:28:41 10° NNE visible
23 Apr ? 20:42:12 21° N 20:42:12 21° N 20:44:04 10° N visible
24 Apr ? 20:57:09 21° NNW 20:57:09 21° NNW 20:59:11 10° N visible
25 Apr ? 19:28:09 16° NE 19:28:09 16° NE 19:29:25 10° NNE visible
25 Apr ? 21:12:04 19° NNW 21:12:04 19° NNW 21:14:02 10° NNW visible
26 Apr ? 19:43:03 22° NNE 19:43:03 22° NNE 19:45:13 10° NNE visible
26 Apr ? 21:26:58 15° NW 21:26:58 15° NW 21:28:26 10° NNW visible
27 Apr ? 19:57:55 29° NNE 19:57:55 29° NNE 20:00:43 10° N visible
28 Apr ? 20:12:44 33° N 20:12:44 33° N 20:15:59 10° N visible
